| time (UTC) | temp F | wind direction | speed MPH | gust MPH | rain 1hr in | rain 24hr in | rain mn in | humidity % | barometer mb |
| 20260901010023 | 72 | 181 | 0.0 | 1.0 | 0.00 | 0.00 | 0.00 | 90 | 1024.9 |
| 20260901004519 | 71 | 181 | 0.0 | 2.0 | 0.00 | 0.00 | 0.00 | 90 | 1025.0 |
| 20260901003018 | 72 | 181 | 0.0 | 0.0 | 0.00 | 0.00 | 0.00 | 91 | 1025.0 |
| 20260901001519 | 72 | 181 | 0.0 | 0.0 | 0.00 | 0.00 | 0.00 | 91 | 1025.0 |
| 20260901000019 | 72 | 181 | 0.0 | 0.0 | 0.00 | 0.00 | 0.00 | 91 | 1025.1 |
| 20260831234515 | 72 | 181 | 0.0 | 0.0 | 0.00 | 0.00 | 0.00 | 91 | 1025.1 |
| 20260831233012 | 72 | 181 | 0.0 | 0.0 | 0.00 | 0.00 | 0.00 | 90 | 1025.1 |
| 20260831231523 | 72 | 181 | 0.0 | 0.0 | 0.00 | 0.00 | 0.00 | 90 | 1025.0 |
| 20260831230010 | 73 | 181 | 0.0 | 0.0 | 0.00 | 0.00 | 0.00 | 89 | 1025.0 |
| 20260831224524 | 73 | 181 | 0.0 | 0.0 | 0.00 | 0.00 | 0.00 | 89 | 1025.0 |
| 20260831223005 | 73 | 181 | 0.0 | 0.0 | 0.00 | 0.00 | 0.00 | 89 | 1024.9 |
| 20260831221502 | 73 | 181 | 0.0 | 0.0 | 0.00 | 0.00 | 0.00 | 89 | 1024.8 |
| 20260831220100 | 73 | 181 | 0.0 | 0.0 | 0.00 | 0.00 | 0.00 | 88 | 1024.9 |
| 20260831214603 | 74 | 181 | 0.0 | 1.0 | 0.00 | 0.00 | 0.00 | 88 | 1024.8 |
| 20260831213058 | 74 | 181 | 0.0 | 1.0 | 0.00 | 0.00 | 0.00 | 87 | 1024.7 |
| 20260831211607 | 75 | 118 | 0.0 | 4.0 | 0.00 | 0.00 | 0.00 | 86 | 1024.7 |
| 20260831210100 | 75 | 203 | 0.0 | 2.0 | 0.00 | 0.00 | 0.00 | 84 | 1024.6 |
| 20260831204554 | 76 | 148 | 0.0 | 5.0 | 0.00 | 0.00 | 0.00 | 84 | 1024.6 |
| 20260831203051 | 76 | 143 | 1.0 | 4.0 | 0.00 | 0.00 | 0.00 | 83 | 1024.5 |
| 20260831201548 | 76 | 111 | 1.0 | 5.0 | 0.00 | 0.00 | 0.00 | 81 | 1024.2 |
| 20260831200044 | 77 | 104 | 1.0 | 4.0 | 0.00 | 0.00 | 0.00 | 78 | 1024.0 |
| 20260831194553 | 77 | 132 | 1.0 | 3.0 | 0.00 | 0.00 | 0.00 | 75 | 1023.8 |
| 20260831193048 | 77 | 134 | 0.0 | 3.0 | 0.00 | 0.00 | 0.00 | 73 | 1023.5 |
| 20260831191546 | 77 | 137 | 1.0 | 6.0 | 0.00 | 0.00 | 0.00 | 71 | 1023.2 |
| 20260831190036 | 77 | 201 | 1.0 | 6.0 | 0.00 | 0.00 | 0.00 | 70 | 1023.1 |
| 20260831184534 | 78 | 149 | 2.0 | 5.0 | 0.00 | 0.00 | 0.00 | 70 | 1023.0 |
| 20260831183034 | 78 | 148 | 1.0 | 4.0 | 0.00 | 0.00 | 0.00 | 70 | 1022.7 |
| 20260831181533 | 78 | 142 | 3.0 | 7.0 | 0.00 | 0.00 | 0.00 | 70 | 1022.6 |
| 20260831180036 | 79 | 118 | 2.0 | 7.0 | 0.00 | 0.00 | 0.00 | 69 | 1022.5 |
| 20260831174533 | 80 | 107 | 1.0 | 5.0 | 0.00 | 0.00 | 0.00 | 68 | 1022.4 |
| 20260831173039 | 80 | 157 | 2.0 | 6.0 | 0.00 | 0.00 | 0.00 | 68 | 1022.4 |
| 20260831171531 | 80 | 173 | 2.0 | 7.0 | 0.00 | 0.00 | 0.00 | 68 | 1022.4 |
| 20260831170031 | 81 | 158 | 3.0 | 8.0 | 0.00 | 0.00 | 0.00 | 68 | 1022.5 |
| 20260831164531 | 82 | 135 | 3.0 | 11.0 | 0.00 | 0.00 | 0.00 | 68 | 1022.5 |
| 20260831163032 | 82 | 100 | 4.0 | 12.0 | 0.00 | 0.00 | 0.00 | 68 | 1022.5 |
| 20260831161532 | 82 | 125 | 5.0 | 8.0 | 0.00 | 0.00 | 0.00 | 69 | 1022.6 |
| 20260831160033 | 82 | 129 | 4.0 | 11.0 | 0.00 | 0.00 | 0.00 | 68 | 1022.5 |
| 20260831154554 | 83 | 158 | 3.0 | 9.0 | 0.00 | 0.00 | 0.00 | 66 | 1022.6 |
| 20260831153028 | 85 | 139 | 2.0 | 11.0 | 0.00 | 0.00 | 0.00 | 62 | 1022.6 |
| 20260831151532 | 85 | 117 | 3.0 | 12.0 | 0.00 | 0.00 | 0.00 | 62 | 1022.5 |
| 20260831150026 | 86 | 94 | 7.0 | 14.0 | 0.00 | 0.00 | 0.00 | 61 | 1022.6 |
| 20260831144528 | 87 | 194 | 5.0 | 12.0 | 0.00 | 0.00 | 0.00 | 61 | 1022.4 |
| 20260831143024 | 86 | 143 | 5.0 | 11.0 | 0.00 | 0.00 | 0.00 | 62 | 1022.4 |
| 20260831141523 | 86 | 99 | 5.0 | 10.0 | 0.00 | 0.00 | 0.00 | 62 | 1022.5 |
| 20260831140022 | 86 | 155 | 5.0 | 10.0 | 0.00 | 0.00 | 0.00 | 62 | 1022.4 |
| 20260831134523 | 84 | 148 | 4.0 | 12.0 | 0.00 | 0.00 | 0.00 | 68 | 1022.5 |
| 20260831133022 | 84 | 78 | 4.0 | 12.0 | 0.00 | 0.00 | 0.00 | 67 | 1022.5 |
| 20260831131522 | 83 | 164 | 6.0 | 12.0 | 0.00 | 0.00 | 0.00 | 67 | 1022.4 |
| 20260831130020 | 84 | 115 | 5.0 | 10.0 | 0.00 | 0.00 | 0.00 | 66 | 1022.5 |
| 20260831124539 | 85 | 135 | 3.0 | 10.0 | 0.00 | 0.00 | 0.00 | 61 | 1022.7 |
| 20260831123019 | 86 | 98 | 6.0 | 13.0 | 0.00 | 0.00 | 0.00 | 60 | 1022.8 |
| 20260831121517 | 86 | 108 | 2.0 | 12.0 | 0.00 | 0.00 | 0.00 | 60 | 1022.8 |
| 20260831120019 | 85 | 120 | 2.0 | 8.0 | 0.00 | 0.00 | 0.00 | 62 | 1023.0 |
| 20260831114517 | 85 | 148 | 0.0 | 9.0 | 0.00 | 0.00 | 0.00 | 61 | 1023.0 |
| 20260831113016 | 85 | 162 | 4.0 | 12.0 | 0.00 | 0.00 | 0.00 | 60 | 1023.0 |
| 20260831111515 | 85 | 146 | 2.0 | 9.0 | 0.00 | 0.00 | 0.00 | 57 | 1023.0 |
| 20260831110021 | 87 | 122 | 1.0 | 5.0 | 0.00 | 0.00 | 0.00 | 55 | 1023.1 |
| 20260831104514 | 86 | 98 | 0.0 | 7.0 | 0.00 | 0.00 | 0.00 | 56 | 1023.2 |
| 20260831103013 | 85 | 135 | 2.0 | 5.0 | 0.00 | 0.00 | 0.00 | 57 | 1023.2 |
| 20260831101511 | 85 | 193 | 5.0 | 8.0 | 0.00 | 0.00 | 0.00 | 55 | 1023.3 |
| 20260831100013 | 85 | 72 | 1.0 | 7.0 | 0.00 | 0.00 | 0.00 | 57 | 1023.4 |
| 20260831094509 | 84 | 207 | 0.0 | 7.0 | 0.00 | 0.00 | 0.00 | 59 | 1023.4 |
| 20260831093009 | 84 | 118 | 0.0 | 6.0 | 0.00 | 0.00 | 0.00 | 60 | 1023.5 |
| 20260831091503 | 82 | 276 | 2.0 | 7.0 | 0.00 | 0.00 | 0.00 | 62 | 1023.5 |
| 20260831090104 | 81 | 323 | 0.0 | 5.0 | 0.00 | 0.00 | 0.00 | 64 | 1023.5 |
| 20260831084602 | 80 | 274 | 0.0 | 6.0 | 0.00 | 0.00 | 0.00 | 68 | 1023.5 |
| 20260831083055 | 80 | 280 | 0.0 | 5.0 | 0.00 | 0.00 | 0.00 | 68 | 1023.4 |
| 20260831081558 | 79 | 281 | 0.0 | 3.0 | 0.00 | 0.00 | 0.00 | 64 | 1023.3 |
| 20260831080048 | 78 | 281 | 0.0 | 0.0 | 0.00 | 0.00 | 0.00 | 63 | 1023.3 |
| 20260831074545 | 75 | 281 | 0.0 | 0.0 | 0.00 | 0.00 | 0.00 | 63 | 1023.3 |
| 20260831073043 | 72 | 281 | 0.0 | 0.0 | 0.00 | 0.00 | 0.00 | 59 | 1023.2 |
| 20260831071600 | 70 | 281 | 0.0 | 0.0 | 0.00 | 0.00 | 0.00 | 61 | 1023.1 |
| 20260831070041 | 69 | 281 | 0.0 | 0.0 | 0.00 | 0.00 | 0.00 | 64 | 1023.1 |
| 20260831064537 | 67 | 281 | 0.0 | 1.0 | 0.00 | 0.00 | 0.00 | 66 | 1023.0 |
| 20260831063037 | 65 | 281 | 0.0 | 0.0 | 0.00 | 0.00 | 0.00 | 73 | 1022.8 |
| 20260831061533 | 64 | 281 | 0.0 | 0.0 | 0.00 | 0.00 | 0.00 | 73 | 1022.6 |
| 20260831060033 | 62 | 281 | 0.0 | 0.0 | 0.00 | 0.00 | 0.00 | 74 | 1022.4 |
| 20260831054528 | 62 | 281 | 0.0 | 0.0 | 0.00 | 0.00 | 0.00 | 75 | 1022.2 |
| 20260831053042 | 62 | 281 | 0.0 | 0.0 | 0.00 | 0.00 | 0.00 | 76 | 1022.1 |
| 20260831051521 | 62 | 281 | 0.0 | 0.0 | 0.00 | 0.00 | 0.00 | 73 | 1021.8 |
| 20260831050019 | 62 | 281 | 0.0 | 0.0 | 0.00 | 0.00 | 0.00 | 73 | 1021.8 |
| 20260831044519 | 62 | 281 | 0.0 | 0.0 | 0.00 | 0.00 | 0.00 | 74 | 1021.7 |
| 20260831043017 | 62 | 281 | 0.0 | 1.0 | 0.00 | 0.00 | 0.00 | 73 | 1021.7 |
| 20260831041516 | 62 | 281 | 0.0 | 0.0 | 0.00 | 0.00 | 0.00 | 74 | 1021.7 |
| 20260831040016 | 62 | 281 | 0.0 | 0.0 | 0.00 | 0.00 | 0.00 | 76 | 1021.7 |
| 20260831034513 | 62 | 281 | 0.0 | 0.0 | 0.00 | 0.00 | 0.00 | 76 | 1021.6 |
| 20260831033027 | 62 | 281 | 0.0 | 0.0 | 0.00 | 0.00 | 0.00 | 76 | 1021.7 |
| 20260831031510 | 63 | 281 | 0.0 | 1.0 | 0.00 | 0.00 | 0.00 | 77 | 1021.7 |
| 20260831030009 | 63 | 281 | 0.0 | 0.0 | 0.00 | 0.00 | 0.00 | 78 | 1021.7 |
| 20260831024508 | 63 | 281 | 0.0 | 1.0 | 0.00 | 0.00 | 0.00 | 78 | 1021.5 |
| 20260831023005 | 64 | 281 | 0.0 | 0.0 | 0.00 | 0.00 | 0.00 | 80 | 1021.5 |
| 20260831021505 | 64 | 281 | 0.0 | 2.0 | 0.00 | 0.00 | 0.00 | 80 | 1021.5 |
| 20260831020004 | 64 | 281 | 0.0 | 0.0 | 0.00 | 0.00 | 0.00 | 82 | 1021.4 |
| 20260831014558 | 65 | 281 | 0.0 | 0.0 | 0.00 | 0.00 | 0.00 | 83 | 1021.3 |
| 20260831013056 | 66 | 281 | 0.0 | 0.0 | 0.00 | 0.00 | 0.00 | 84 | 1021.3 |
| 20260831011603 | 67 | 281 | 0.0 | 0.0 | 0.00 | 0.00 | 0.00 | 87 | 1021.2 |